Time,TemperatureF,DewpointF,PressureIn,WindDirection,WindDirectionDegrees,WindSpeedMPH,WindSpeedGustMPH,Humidity,HourlyPrecipIn,Conditions,Clouds,dailyrainin,SoftwareType,DateUTC
2013-08-10 00:02:00,56.0,-99.9,29.57,East,83,5.0,6.0,-999,-99.99,,,-99.99,,2013-08-10 08:02:00,
2013-08-10 00:32:00,53.0,-99.9,29.57,ENE,63,4.0,5.0,-999,-99.99,,,-99.99,,2013-08-10 08:32:00,
2013-08-10 00:43:00,53.0,-99.9,29.57,ENE,57,4.0,5.0,-999,-99.99,,,-99.99,,2013-08-10 08:43:00,
2013-08-10 01:02:00,53.0,-99.9,29.57,NE,49,5.0,6.0,-999,-99.99,,,-99.99,,2013-08-10 09:02:00,
2013-08-10 01:32:00,52.0,-99.9,29.58,NNE,29,4.0,5.0,-999,-99.99,,,-99.99,,2013-08-10 09:32:00,
2013-08-10 02:02:00,52.0,-99.9,29.58,NNE,26,2.0,4.0,-999,-99.99,,,-99.99,,2013-08-10 10:02:00,
2013-08-10 02:22:00,51.0,-99.9,29.58,NNE,22,2.0,3.0,-999,-99.99,,,-99.99,,2013-08-10 10:22:00,
2013-08-10 04:01:00,51.0,-99.9,29.60,NNE,23,4.0,5.0,-999,-99.99,,,-99.99,,2013-08-10 12:01:00,
2013-08-10 05:01:00,51.0,-99.9,29.60,North,1,4.0,5.0,-999,-99.99,,,-99.99,,2013-08-10 13:01:00,
2013-08-10 05:11:00,51.0,-99.9,29.61,North,1,4.0,5.0,-999,-99.99,,,-99.99,,2013-08-10 13:11:00,
2013-08-10 05:22:00,51.0,-99.9,29.61,North,8,2.0,4.0,-999,-99.99,,,-99.99,,2013-08-10 13:22:00,
2013-08-10 05:43:00,52.0,-99.9,29.62,ENE,67,8.0,9.0,-999,-99.99,,,-99.99,,2013-08-10 13:43:00,
2013-08-10 06:02:00,51.0,-99.9,29.62,ENE,69,6.0,6.0,-999,-99.99,,,-99.99,,2013-08-10 14:02:00,
2013-08-10 07:02:00,51.0,-99.9,29.62,NE,53,6.0,7.0,-999,-99.99,,,-99.99,,2013-08-10 15:02:00,
2013-08-10 07:34:00,51.0,-99.9,29.62,NE,49,5.0,6.0,-999,-99.99,,,-99.99,,2013-08-10 15:34:00,
2013-08-10 07:43:00,52.0,-99.9,29.62,ENE,57,6.0,7.0,-999,-99.99,,,-99.99,,2013-08-10 15:43:00,
2013-08-10 08:02:00,52.0,-99.9,29.62,NNE,33,5.0,8.0,-999,-99.99,,,-99.99,,2013-08-10 16:02:00,
2013-08-10 08:22:00,52.0,-99.9,29.62,North,357,2.0,4.0,-999,-99.99,,,-99.99,,2013-08-10 16:22:00,
2013-08-10 08:43:00,53.0,-99.9,29.63,North,358,3.0,3.0,-999,-99.99,,,-99.99,,2013-08-10 16:43:00,
2013-08-10 09:22:00,53.0,-99.9,29.63,NNE,32,3.0,3.0,-999,-99.99,,,-99.99,,2013-08-10 17:22:00,
2013-08-10 09:43:00,54.0,-99.9,29.64,NNW,343,4.0,4.0,-999,-99.99,,,-99.99,,2013-08-10 17:43:00,
2013-08-10 10:01:00,53.0,-99.9,29.65,NE,51,2.0,3.0,-999,-99.99,,,-99.99,,2013-08-10 18:01:00,
2013-08-10 10:44:00,55.0,-99.9,29.65,East,94,6.0,8.0,-999,-99.99,,,-99.99,,2013-08-10 18:44:00,
2013-08-10 11:02:00,55.0,-99.9,29.66,ENE,67,6.0,7.0,-999,-99.99,,,-99.99,,2013-08-10 19:02:00,
2013-08-10 11:22:00,55.0,-99.9,29.66,East,80,5.0,7.0,-999,-99.99,,,-99.99,,2013-08-10 19:22:00,
2013-08-10 11:44:00,56.0,-99.9,29.67,East,85,5.0,6.0,-999,-99.99,,,-99.99,,2013-08-10 19:44:00,
2013-08-10 12:02:00,56.0,-99.9,29.67,East,97,4.0,6.0,-999,-99.99,,,-99.99,,2013-08-10 20:02:00,
2013-08-10 12:43:00,56.0,-99.9,29.68,East,95,5.0,6.0,-999,-99.99,,,-99.99,,2013-08-10 20:43:00,
2013-08-10 12:53:00,56.0,-99.9,29.69,ESE,104,6.0,7.0,-999,-99.99,,,-99.99,,2013-08-10 20:53:00,
2013-08-10 13:02:00,55.0,-99.9,29.69,ESE,115,8.0,11.0,-999,-99.99,,,-99.99,,2013-08-10 21:02:00,
2013-08-10 13:22:00,55.0,-99.9,29.69,ESE,105,8.0,10.0,-999,-99.99,,,-99.99,,2013-08-10 21:22:00,
2013-08-10 13:43:00,55.0,-99.9,29.70,East,89,5.0,6.0,-999,-99.99,,,-99.99,,2013-08-10 21:43:00,
2013-08-10 14:21:00,59.0,-99.9,29.70,SE,146,2.0,3.0,-999,-99.99,,,-99.99,,2013-08-10 22:21:00,
2013-08-10 14:43:00,59.0,-99.9,29.71,SSW,212,2.0,4.0,-999,-99.99,,,-99.99,,2013-08-10 22:43:00,
2013-08-10 15:02:00,60.0,-99.9,29.71,SSW,211,2.0,4.0,-999,-99.99,,,-99.99,,2013-08-10 23:02:00,
2013-08-10 15:53:00,62.0,-99.9,29.72,SW,217,2.0,4.0,-999,-99.99,,,-99.99,,2013-08-10 23:53:00,
2013-08-10 16:32:00,60.0,-99.9,29.72,SW,224,2.0,4.0,-999,-99.99,,,-99.99,,2013-08-11 00:32:00,
2013-08-10 17:02:00,60.0,-99.9,29.73,SW,221,3.0,5.0,-999,-99.99,,,-99.99,,2013-08-11 01:02:00,
2013-08-10 17:12:00,60.0,-99.9,29.73,SW,218,3.0,5.0,-999,-99.99,,,-99.99,,2013-08-11 01:12:00,
2013-08-10 17:32:00,61.0,-99.9,29.74,SW,226,4.0,5.0,-999,-99.99,,,-99.99,,2013-08-11 01:32:00,
2013-08-10 17:43:00,61.0,-99.9,29.74,SW,218,3.0,5.0,-999,-99.99,,,-99.99,,2013-08-11 01:43:00,
2013-08-10 17:54:00,61.0,-99.9,29.74,SW,228,3.0,5.0,-999,-99.99,,,-99.99,,2013-08-11 01:54:00,
2013-08-10 18:02:00,61.0,-99.9,29.74,SW,226,4.0,6.0,-999,-99.99,,,-99.99,,2013-08-11 02:02:00,
2013-08-10 18:32:00,62.0,-99.9,29.75,West,267,2.0,4.0,-999,-99.99,,,-99.99,,2013-08-11 02:32:00,
2013-08-10 18:43:00,63.0,-99.9,29.75,WSW,253,2.0,2.0,-999,-99.99,,,-99.99,,2013-08-11 02:43:00,
2013-08-10 19:07:00,61.0,-99.9,29.75,SSE,157,3.0,4.0,-999,-99.99,,,-99.99,,2013-08-11 03:07:00,
2013-08-10 19:36:00,60.0,-99.9,29.75,SSE,158,3.0,4.0,-999,-99.99,,,-99.99,,2013-08-11 03:36:00,
2013-08-10 20:43:00,59.0,-99.9,29.76,South,170,3.0,4.0,-999,-99.99,,,-99.99,,2013-08-11 04:43:00,
2013-08-10 21:02:00,59.0,-99.9,29.77,South,175,3.0,4.0,-999,-99.99,,,-99.99,,2013-08-11 05:02:00,
2013-08-10 21:38:00,60.0,-99.9,29.78,SSW,199,2.0,5.0,-999,-99.99,,,-99.99,,2013-08-11 05:38:00,
2013-08-10 21:51:00,59.0,-99.9,29.78,South,178,3.0,4.0,-999,-99.99,,,-99.99,,2013-08-11 05:51:00,
2013-08-10 22:05:00,58.0,-99.9,29.78,South,185,3.0,4.0,-999,-99.99,,,-99.99,,2013-08-11 06:05:00,
2013-08-10 22:27:00,58.0,-99.9,29.78,South,181,2.0,4.0,-999,-99.99,,,-99.99,,2013-08-11 06:27:00,
2013-08-10 22:49:00,58.0,-99.9,29.79,ESE,103,-999.0,2.0,-999,-99.99,,,-99.99,,2013-08-11 06:49:00,
2013-08-10 22:58:00,58.0,-99.9,29.79,SE,138,1.0,2.0,-999,-99.99,,,-99.99,,2013-08-11 06:58:00,
2013-08-10 23:07:00,57.0,-99.9,29.80,ESE,118,1.0,2.0,-999,-99.99,,,-99.99,,2013-08-11 07:07:00,
2013-08-10 23:17:00,57.0,-99.9,29.80,ESE,109,2.0,2.0,-999,-99.99,,,-99.99,,2013-08-11 07:17:00,
2013-08-10 23:47:00,57.0,-99.9,29.80,ESE,114,1.0,3.0,-999,-99.99,,,-99.99,,2013-08-11 07:47:00,